MST,Max TemperatureF,Mean TemperatureF,Min TemperatureF,Max Dew PointF,MeanDew PointF,Min DewpointF,Max Humidity, Mean Humidity, Min Humidity, Max Sea Level PressureIn, Mean Sea Level PressureIn, Min Sea Level PressureIn, Max VisibilityMiles, Mean VisibilityMiles, Min VisibilityMiles, Max Wind SpeedMPH, Mean Wind SpeedMPH, Max Gust SpeedMPH,PrecipitationIn, CloudCover, Events, WindDirDegrees
2012-1-1,35,18,0,1,-3,-9,78,49,20,30.69,30.61,30.52,10,10,7,6,1,,0.00,0,,5
2012-1-2,42,22,3,10,4,-4,79,56,27,30.78,30.66,30.57,10,10,8,7,1,,0.00,0,,313
2012-1-3,42,22,3,14,7,-2,92,60,31,30.57,30.49,30.38,10,10,8,9,1,,0.00,0,,325
2012-1-4,39,21,3,10,4,-2,85,59,28,30.72,30.61,30.54,10,10,9,5,1,,0.00,0,,37
2012-1-5,44,24,3,10,5,-2,85,57,23,30.57,30.38,30.20,10,10,8,8,1,,0.00,0,,5
2012-1-6,44,24,5,16,7,0,85,60,29,30.23,30.15,30.09,10,10,9,13,1,20,0.00,0,,285
2012-1-7,35,24,12,21,16,5,86,69,52,30.07,29.99,29.91,10,10,10,16,3,20,0.00,7,,246
2012-1-8,32,21,6,19,11,1,86,68,44,30.30,30.16,30.05,10,10,10,10,4,,0.00,4,,331
2012-1-9,33,16,0,12,4,-6,92,67,35,30.43,30.34,30.26,10,10,5,7,0,,0.00,0,,29
2012-1-10,39,20,1,16,6,-8,85,65,39,30.33,30.20,30.04,10,10,9,7,1,,0.00,0,,336
2012-1-11,30,19,8,16,2,-11,85,53,28,30.19,30.04,29.97,10,10,7,21,4,30,0.00,3,,303
2012-1-12,33,13,-7,-6,-10,-17,84,42,17,30.28,30.18,30.07,10,10,10,13,3,17,0.00,0,,304
2012-1-13,37,15,-7,0,-7,-15,78,46,16,30.39,30.29,30.21,10,10,9,18,3,28,0.00,0,,249
2012-1-14,37,16,-4,5,-3,-15,78,51,24,30.47,30.35,30.25,10,10,9,8,1,,0.00,0,,25
2012-1-15,42,20,-2,9,2,-8,85,50,19,30.25,30.07,29.93,10,10,9,12,1,20,0.00,2,,295
2012-1-16,33,24,15,27,16,5,93,70,43,30.02,29.82,29.68,10,6,0,24,6,41,0.05,7,,257
2012-1-17,26,11,-4,9,-3,-11,85,60,28,30.21,30.13,30.02,10,10,9,15,5,22,0.00,3,,287
2012-1-18,37,21,5,18,11,-2,79,60,44,30.18,30.12,30.06,10,10,10,12,3,,0.00,7,,20
2012-1-19,48,32,15,28,21,10,86,63,43,30.14,30.06,29.95,10,10,9,12,4,17,0.00,5,,21
2012-1-20,44,34,19,28,20,10,87,54,27,30.13,30.00,29.90,10,10,10,18,7,28,0.00,5,,269
2012-1-21,26,19,12,23,15,7,86,77,64,30.12,29.90,29.55,10,8,0,6,1,,0.05,4,,244
2012-1-22,30,18,5,25,14,0,86,69,51,30.14,29.85,29.50,10,8,1,20,11,28,0.00,5,,241
2012-1-23,24,10,-5,12,2,-9,92,74,54,30.15,30.05,29.92,10,10,10,4,0,,0.00,5,,186
2012-1-24,30,20,10,21,16,7,93,78,69,30.14,30.02,29.91,10,7,2,13,2,,0.02,7,,238
2012-1-25,28,20,12,16,9,3,79,65,51,30.43,30.34,30.28,10,10,9,10,4,,0.00,4,,357
2012-1-26,33,16,0,19,6,-6,92,73,51,30.33,30.25,30.07,10,10,7,5,1,,0.00,1,,350
2012-1-27,30,16,0,28,15,-4,100,76,43,30.37,30.13,29.95,10,8,1,18,5,26,0.05,4,,305
2012-1-28,19,2,-16,3,-6,-26,100,69,46,30.53,30.45,30.38,10,10,10,8,2,,0.00,0,,50
2012-1-29,28,10,-7,10,0,-17,100,66,40,30.53,30.44,30.33,10,10,8,6,1,,0.00,0,,298
2012-1-30,28,12,-4,16,4,-9,92,74,51,30.32,30.18,30.05,10,10,8,7,0,,0.00,0,,106
2012-1-31,28,12,-4,12,3,-8,100,71,47,30.22,30.16,30.11,10,10,7,6,0,,0.00,1,,285